Date String (YYYY-MM-DD hh:mm:ss) UTC,Instrument flags,Ambient pressure (hPa),Sample flow (lpm),Bypass flow (lpm),Sample temperature (°C),Ambient temperature (°C),ASC tube jacket temperature (°C),LED temperature (°C),Box temperature (°C),Sample RH (%),Span deviation,Mass concentration (μg/m³),Mass concentration (μg/m³),Mass concentration (μg/m³)
DateTimeUTC,F1_M11,P_M11,Q1_M11,Q2_M11,T1_M11,T2_M11,T3_M11,T4_M11,T5_M11,U1_M11,ZSPAN_M11,X0_M11,X2_M11,X1_M11
2023-05-14 10:00:00,,0840.1,5.01,0.00,28.9,27.3,00.0,37.2,30.5,26.6,0000.0,0001.82,0000.57,0000.26
2023-05-14 10:01:00,,0840.1,5.01,0.00,28.9,27.3,00.0,37.2,30.5,26.6,0000.0,0001.81,0000.57,0000.26
2023-05-14 10:02:00,,0840.2,4.99,0.00,28.9,27.3,00.0,37.3,30.5,26.6,0000.0,0001.75,0000.56,0000.25
2023-05-14 10:03:00,,0840.2,4.98,0.00,28.9,27.3,00.0,37.3,30.5,26.5,0000.0,0001.88,0000.60,0000.26
2023-05-14 10:04:00,,0840.1,5.01,0.00,28.9,27.3,00.0,37.3,30.5,26.5,0000.0,0001.87,0000.60,0000.26
2023-05-14 10:05:00,,0840.2,5.00,0.00,28.9,27.3,00.0,37.3,30.5,26.5,0000.0,0001.84,0000.58,0000.25
2023-05-14 10:06:00,,0840.1,5.01,0.00,28.9,27.3,00.0,37.3,30.5,26.5,0000.0,0001.75,0000.54,0000.25
2023-05-14 10:07:00,,0840.1,5.00,0.00,28.9,27.3,00.0,37.3,30.5,26.5,0000.0,0001.66,0000.51,0000.24
2023-05-14 10:08:00,,0840.1,5.00,0.00,28.9,27.3,00.0,37.3,30.5,26.5,0000.0,0001.20,0000.49,0000.24
2023-05-14 10:09:00,,0840.1,5.00,0.00,28.9,27.3,00.0,37.3,30.5,26.5,0000.0,0001.03,0000.48,0000.24
2023-05-14 10:10:00,,0840.1,5.01,0.00,28.9,27.3,00.0,37.3,30.5,26.5,0000.0,0000.93,0000.46,0000.24
2023-05-14 10:11:00,,0840.1,5.01,0.00,28.9,27.3,00.0,37.3,30.5,26.5,0000.0,0000.99,0000.47,0000.24
2023-05-14 10:12:00,,0840.1,5.00,0.00,28.9,27.3,00.0,37.3,30.5,26.5,0000.0,0001.11,0000.50,0000.23
2023-05-14 10:13:00,,0840.1,4.99,0.00,28.9,27.4,00.0,37.3,30.5,26.5,0000.0,0001.11,0000.50,0000.23
2023-05-14 10:14:00,,0840.1,4.99,0.00,28.9,27.4,00.0,37.3,30.5,26.5,0000.0,0001.03,0000.48,0000.24
2023-05-14 10:15:00,,0840.1,5.01,0.00,28.9,27.4,00.0,37.3,30.5,26.5,0000.0,0001.02,0000.47,0000.23
2023-05-14 10:16:00,,0840.0,4.99,0.00,28.9,27.4,00.0,37.3,30.5,26.5,0000.0,0001.17,0000.52,0000.23
2023-05-14 10:17:00,,0840.0,5.00,0.00,28.9,27.4,00.0,37.3,30.5,26.5,0000.0,0001.26,0000.55,0000.24
2023-05-14 10:18:00,,0840.1,4.99,0.00,28.9,27.4,00.0,37.3,30.5,26.5,0000.0,0001.27,0000.55,0000.24
2023-05-14 10:19:00,,0840.0,5.01,0.00,28.9,27.4,00.0,37.3,30.5,26.5,0000.0,0001.27,0000.55,0000.24
2023-05-14 10:20:00,,0840.1,5.01,0.00,28.9,27.4,00.0,37.3,30.5,26.5,0000.0,0001.25,0000.54,0000.23
2023-05-14 10:21:00,,0840.1,4.99,0.00,28.9,27.3,00.0,37.3,30.5,26.5,0000.0,0001.25,0000.54,0000.23
2023-05-14 10:22:00,,0840.1,4.99,0.00,28.9,27.3,00.0,37.3,30.5,26.5,0000.0,0001.18,0000.52,0000.23
2023-05-14 10:23:00,,0840.0,5.00,0.00,28.9,27.3,00.0,37.3,30.5,26.5,0000.0,0001.18,0000.53,0000.24
2023-05-14 10:24:00,,0840.0,5.00,0.00,28.9,27.3,00.0,37.3,30.5,26.5,0000.0,0001.21,0000.55,0000.25
2023-05-14 10:25:00,,0840.0,5.00,0.00,28.9,27.3,00.0,37.3,30.5,26.5,0000.0,0001.21,0000.55,0000.24
2023-05-14 10:26:00,,0840.0,5.01,0.00,28.9,27.3,00.0,37.3,30.5,26.5,0000.0,0001.26,0000.57,0000.24
2023-05-14 10:27:00,,0840.1,4.99,0.00,28.9,27.3,00.0,37.3,30.5,26.5,0000.0,0001.13,0000.54,0000.25
2023-05-14 10:28:00,,0840.1,5.00,0.00,28.9,27.3,00.0,37.3,30.5,26.5,0000.0,0001.12,0000.54,0000.25
2023-05-14 10:29:00,,0840.1,5.00,0.00,28.9,27.3,00.0,37.3,30.5,26.5,0000.0,0001.10,0000.54,0000.25
2023-05-14 10:30:00,,0840.1,4.99,0.00,28.9,27.3,00.0,37.3,30.5,26.5,0000.0,0001.11,0000.54,0000.26
2023-05-14 10:31:00,,0840.1,5.00,0.00,28.9,27.2,00.0,37.3,30.4,26.6,0000.0,0001.12,0000.55,0000.26
2023-05-14 10:32:00,,0840.1,5.00,0.00,28.9,27.3,00.0,37.3,30.4,26.5,0000.0,0001.07,0000.54,0000.27
2023-05-14 10:33:00,,0840.1,5.00,0.00,28.9,27.3,00.0,37.3,30.4,26.6,0000.0,0001.07,0000.53,0000.26
2023-05-14 10:34:00,,0840.1,5.01,0.00,28.9,27.2,00.0,37.3,30.4,26.6,0000.0,0000.96,0000.50,0000.26
2023-05-14 10:35:00,,0840.1,5.01,0.00,28.9,27.2,00.0,37.3,30.4,26.6,0000.0,0000.96,0000.51,0000.26
2023-05-14 10:36:00,,0840.1,4.99,0.00,28.9,27.2,00.0,37.3,30.4,26.6,0000.0,0000.95,0000.50,0000.27
2023-05-14 10:37:00,,0840.1,4.99,0.00,28.9,27.2,00.0,37.2,30.4,26.6,0000.0,0000.94,0000.50,0000.27
2023-05-14 10:38:00,,0840.1,5.00,0.00,28.9,27.2,00.0,37.2,30.4,26.6,0000.0,0000.99,0000.50,0000.27
2023-05-14 10:39:00,,0840.1,5.00,0.00,28.9,27.2,00.0,37.2,30.4,26.6,0000.0,0000.97,0000.49,0000.26
2023-05-14 10:40:00,,0840.1,5.00,0.00,28.9,27.2,00.0,37.2,30.4,26.6,0000.0,0000.93,0000.48,0000.26
2023-05-14 10:41:00,,0840.1,5.00,0.00,28.9,27.2,00.0,37.2,30.4,26.6,0000.0,0000.92,0000.48,0000.26
2023-05-14 10:42:00,,0840.1,5.00,0.00,28.8,27.2,00.0,37.2,30.4,26.6,0000.0,0000.98,0000.49,0000.26
2023-05-14 10:43:00,,0840.1,5.00,0.00,28.9,27.2,00.0,37.2,30.4,26.6,0000.0,0000.94,0000.48,0000.26
2023-05-14 10:44:00,,0840.1,4.98,0.00,28.8,27.2,00.0,37.2,30.4,26.6,0000.0,0000.99,0000.50,0000.26
2023-05-14 10:45:00,,0840.1,5.00,0.00,28.8,27.2,00.0,37.2,30.4,26.7,0000.0,0001.13,0000.54,0000.27
2023-05-14 10:46:00,,0840.1,5.01,0.00,28.8,27.2,00.0,37.2,30.4,26.7,0000.0,0001.14,0000.54,0000.27
2023-05-14 10:47:00,,0840.1,5.00,0.00,28.8,27.2,00.0,37.2,30.4,26.7,0000.0,0001.83,0000.53,0000.26
2023-05-14 10:48:00,,0840.1,5.00,0.00,28.8,27.2,00.0,37.2,30.4,26.7,0000.0,0002.00,0000.54,0000.26
2023-05-14 10:49:00,,0840.1,5.01,0.00,28.8,27.2,00.0,37.2,30.4,26.7,0000.0,0001.97,0000.53,0000.26
2023-05-14 10:50:00,,0840.1,4.99,0.00,28.8,27.2,00.0,37.2,30.4,26.7,0000.0,0001.96,0000.53,0000.26
2023-05-14 10:51:00,,0840.1,5.00,0.00,28.8,27.2,00.0,37.2,30.4,26.7,0000.0,0001.95,0000.52,0000.26
2023-05-14 10:52:00,,0840.1,5.01,0.00,28.8,27.1,00.0,37.2,30.4,26.7,0000.0,0001.93,0000.51,0000.25
2023-05-14 10:53:00,,0840.0,5.01,0.00,28.8,27.1,00.0,37.2,30.3,26.7,0000.0,0001.86,0000.49,0000.26
2023-05-14 10:54:00,,0840.0,4.98,0.00,28.8,27.1,00.0,37.2,30.3,26.8,0000.0,0001.89,0000.50,0000.25
2023-05-14 10:55:00,,0840.0,5.01,0.00,28.8,27.1,00.0,37.2,30.3,26.8,0000.0,0001.85,0000.48,0000.25
2023-05-14 10:56:00,,0840.0,5.01,0.00,28.8,27.1,00.0,37.2,30.3,26.8,0000.0,0001.73,0000.44,0000.24
2023-05-14 10:57:00,,0840.0,5.00,0.00,28.8,27.1,00.0,37.2,30.3,26.8,0000.0,0001.72,0000.44,0000.24
2023-05-14 10:58:00,,0840.0,4.99,0.00,28.8,27.1,00.0,37.2,30.3,26.9,0000.0,0000.87,0000.42,0000.24
2023-05-14 10:59:00,,0840.0,4.98,0.00,28.8,27.1,00.0,37.2,30.3,26.9,0000.0,0000.81,0000.41,0000.24
